Regional Weather Roundup
Issued by NWS

Home | Current Version | Previous Version | Text Only | Print | Product List | Glossary On
Versions: 1 2 3 4 5 6 7 8 9 10 11 12 13 14 15 16 17 18 19 20 21 22 23 24 25 26 27 28 29 30 31 32 33 34 35 36 37 38 39 40 41 42 43 44 45 46 47 48 49 50
000
ASUS46 KPQR 240110
RWROR

OREGON REGIONAL WEATHER ROUNDUP
NATIONAL WEATHER SERVICE PORTLAND OR
600 PM PDT TUE SEP 23 2014

NOTE: "FAIR" INDICATES FEW OR NO CLOUDS BELOW 12,000 FEET WITH
NO SIGNIFICANT WEATHER AND/OR OBSTRUCTIONS TO VISIBILITY.

ORZ001>013-240200-
NORTHWEST OREGON


CITY           SKY/WX    TMP DP  RH WIND       PRES   REMARKS
ASTORIA        LGT RAIN  64  60  87 N6        29.72F
NEWPORT        LGT RAIN  64  63  94 S15G25    29.77F
PORTLAND       LGT RAIN  65  63  93 CALM      29.79F
VANCOUVER WA   LGT RAIN  65  61  87 CALM      29.78F
SCAPPOOSE      LGT RAIN  64  62  93 CALM      29.78F FOG
HILLSBORO      LGT RAIN  64  61  90 E7        29.78F FOG
AURORA         CLOUDY    65  62  90 NE5       29.79F
MCMINNVILLE    LGT RAIN  65  62  90 E5        29.78F FOG
SALEM          CLOUDY    67  62  84 N5        29.76F
CORVALLIS      CLOUDY    64  61  88 W3        29.78F
EUGENE         CLOUDY    70  57  63 NE3       29.77S
$$

ORZ021-028-240200-
SOUTHWEST OREGON


CITY           SKY/WX    TMP DP  RH WIND       PRES   REMARKS
NORTH BEND     CLOUDY    73  63  68 S10G18    29.74F
BROOKINGS      CLOUDY    64  63  97 S13G21    29.87S
ROSEBURG       CLOUDY    80  55  42 SW6       29.75S
SEXTON SUMMIT  CLOUDY    63  52  67 S13G22    29.91S
MEDFORD        PTSUNNY   81  53  37 NW13G20   29.77S
$$

ORZ009-041-240200-
COLUMBIA GORGE


CITY           SKY/WX    TMP DP  RH WIND       PRES   REMARKS
TROUTDALE      CLOUDY    67  59  75 VRB3      29.77F
THE DALLES     CLOUDY    71  54  54 NW13      29.78S
$$

ORZ029>031-042>050-061>064-240200-
EASTERN OREGON


CITY           SKY/WX    TMP DP  RH WIND       PRES   REMARKS
REDMOND        MOCLDY    77  39  25 S10       29.84F
BEND           MOCLDY    75  41  29 S6        29.88S
KLAMATH FALLS  PTSUNNY   72  35  25 S21       29.95R
LAKEVIEW       MOCLDY    73  34  23 SW14      30.02S
HERMISTON      CLOUDY    78  54  43 NE3       29.77F
PENDLETON      CLOUDY    75  59  57 NE10      29.80F
JOHN DAY       CLOUDY    78  38  23 S7        29.91F
MEACHAM        MOCLDY    70  51  51 CALM      29.92F
LA GRANDE      MOCLDY    79  46  31 S9        29.87S
BAKER CITY     CLOUDY    72  52  49 E8        29.92F
BURNS          CLOUDY    75  32  20 S6        29.95F
ROME             N/A     82  27  13 S17       29.95F
ONTARIO        CLOUDY    77  54  44 NW5       29.88F
$$


USA.gov is the U.S. government's official web portal to all federal, state and local government web resources and services.